{"data":{"norad_id":45450,"intl_designator":"2020-020AC","name":"ONEWEB-0094","alt_names":[],"object_type":"PAYLOAD","status":"ACTIVE","operator":null,"country":"UK","launch_date":"2020-03-21","launch_site_code":"TYMSC","launch_vehicle":null,"mission":null,"orbit_class":"UNKNOWN","rcs_meters":null,"size_class":null,"mass_kg":null,"dimensions":null,"purposes":["comms"],"wikipedia_slug":null,"has_3d_model":false,"image_url":null,"decayed_at":null,"tle_current":{"epoch":"2026-05-25T02:50:24.398016Z","epoch_age_seconds":68374,"freshness":"FRESH","line1":"1 45450U 20020AC  26145.11833794  .00000010  00000+0 -64948-5 0  9993","line2":"2 45450  87.9162  10.4347 0001787  77.1771 282.9560 13.17649745303279","mean_motion":13.17649745,"eccentricity":0.0001787,"inclination_deg":87.9162,"raan_deg":10.4347,"arg_perigee_deg":77.1771,"mean_anomaly_deg":282.956,"bstar":-6.4948e-6,"rev_number":30327,"period_min":109.28549149455,"perigee_km":1192.3573166461,"apogee_km":1195.0634949089,"semimajor_km":7571.8474057775,"source":"CELESTRAK","updated_at":"2026-05-25T13:38:22.346617Z"}}}